Crumpler, NC

9:25 PM EST on December 03, 2016 (GMT -0500)
Ashe County

Weather History for KGEV - November, 2013

Change the Weather History Date:

Sunday, November 24, 2013

  Actual Average Record
Temperature  
Mean Temperature 20 °F -  
Max Temperature 25 °F 54 °F 72 °F (1973)
Min Temperature 16 °F 28 °F -5 °F (1970)
Degree Days  
Heating Degree Days 44    
Moisture  
Dew Point 1 °F    
Average Humidity 44    
Maximum Humidity 64    
Minimum Humidity 25    
Precipitation  
Precipitation 0.00 in - - ()
Sea Level Pressure  
Sea Level Pressure 30.27 in    
Wind  
Wind Speed 15 mph (NW)    
Max Wind Speed 24 mph    
Max Gust Speed 37 mph    
Visibility 10 miles    
Events Snow    
Averages and records for this station are not official NWS values.
T = Trace of Precipitation, MM = Missing Value Source: NWS Daily Summary

Daily Weather History Graph

Daily Weather History Graph

Search for Another Location

Airport or City:

Trip Planner

Search our weather history database for the weather conditions in past years. The results will help you decide how hot, cold, wet, or windy it might be!

Date:

Astronomy

Nov. 24, 2013 Rise Set
Actual Time 7:12 AM EST 5:12 PM EST
Civil Twilight 6:44 AM EST 5:40 PM EST
Nautical Twilight 6:12 AM EST 6:11 PM EST
Astronomical Twilight 5:41 AM EST 6:42 PM EST
Moon 11:31 PM EST (11/24) 12:04 PM EST (11/24)
Length of Visible Light 10h 55m
Length of Day
9h 59m
Waning Gibbous, 61% of the Moon is Illuminated
Nov 24
Waning Gibbous
Nov 25
Last Quarter
Dec 2
New
Dec 9
First Quarter
Dec 17
Full

Hourly Weather History & Observations

Time (EST) Temp. Windchill Dew Point Humidity Pressure Visibility Wind Dir Wind Speed Gust Speed Precip Events Conditions
12:15 AM 24.6 °F 9.4 °F 10.4 °F 55% 30.14 in 10.0 mi NW 23.0 mph 32.2 mph N/A   Scattered Clouds
12:35 AM 23.9 °F 11.2 °F 10.6 °F 57% 30.15 in 10.0 mi NNW 15.0 mph 28.8 mph N/A   Scattered Clouds
12:55 AM 23.7 °F 10.5 °F 10.4 °F 57% 30.15 in 10.0 mi NW 16.1 mph 21.9 mph N/A   Mostly Cloudy
1:15 AM 23.2 °F 9.8 °F 10.2 °F 58% 30.15 in 10.0 mi NNW 16.1 mph 26.5 mph N/A   Overcast
1:35 AM 22.1 °F 9.5 °F 8.2 °F 55% 30.15 in 10.0 mi NW 13.8 mph 26.5 mph N/A   Mostly Cloudy
1:55 AM 21.6 °F 7.8 °F 7.3 °F 54% 30.15 in 10.0 mi NW 16.1 mph 26.5 mph N/A   Scattered Clouds
2:15 AM 21.4 °F 6.2 °F 7.7 °F 56% 30.15 in 10.0 mi NW 19.6 mph 33.4 mph N/A   Mostly Cloudy
2:35 AM 21.2 °F 6.0 °F 8.4 °F 58% 30.16 in 10.0 mi NW 19.6 mph 29.9 mph N/A   Overcast
2:55 AM 20.8 °F 7.3 °F 8.6 °F 59% 30.17 in 10.0 mi NNW 15.0 mph 35.7 mph N/A   Mostly Cloudy
3:15 AM 20.3 °F 4.0 °F 7.2 °F 57% 30.17 in 10.0 mi NNW 21.9 mph 34.5 mph N/A   Mostly Cloudy
3:35 AM 19.6 °F 3.5 °F 7.0 °F 58% 30.16 in 10.0 mi NNW 20.7 mph 27.6 mph N/A   Scattered Clouds
3:55 AM 19.4 °F 4.5 °F 7.3 °F 60% 30.17 in 10.0 mi NW 17.3 mph 26.5 mph N/A   Scattered Clouds
4:15 AM 19.4 °F 5.0 °F 7.7 °F 60% 30.17 in 10.0 mi NNW 16.1 mph 29.9 mph N/A   Mostly Cloudy
4:35 AM 19.4 °F 3.6 °F 8.6 °F 63% 30.17 in 10.0 mi NW 19.6 mph 27.6 mph N/A Snow Light Snow
4:55 AM 19.0 °F 5.6 °F 8.1 °F 62% 30.17 in 10.0 mi NW 13.8 mph 26.5 mph N/A Snow Light Snow
5:15 AM 18.5 °F 2.4 °F 7.3 °F 62% 30.18 in 10.0 mi NW 19.6 mph 29.9 mph N/A   Scattered Clouds
5:35 AM 18.1 °F 2.4 °F 7.2 °F 62% 30.18 in 10.0 mi NW 18.4 mph 26.5 mph N/A   Clear
5:55 AM 17.6 °F 2.2 °F 6.8 °F 63% 30.19 in 10.0 mi NW 17.3 mph 35.7 mph N/A   Clear
6:15 AM 17.2 °F 2.2 °F 6.4 °F 63% 30.20 in 10.0 mi NNW 16.1 mph 28.8 mph N/A   Clear
6:35 AM 16.7 °F 0.1 °F 5.7 °F 62% 30.21 in 10.0 mi NW 19.6 mph 36.8 mph N/A   Clear
6:55 AM 16.7 °F -0.7 °F 5.4 °F 61% 30.22 in 10.0 mi NW 21.9 mph 27.6 mph N/A   Clear
7:15 AM 16.5 °F 1.8 °F 5.4 °F 62% 30.23 in 10.0 mi NW 15.0 mph 25.3 mph N/A   Clear
7:35 AM 16.3 °F -2.0 °F 5.7 °F 63% 30.23 in 10.0 mi NW 24.2 mph 33.4 mph N/A   Clear
7:55 AM 16.3 °F -1.2 °F 5.9 °F 64% 30.23 in 10.0 mi NW 21.9 mph 27.6 mph N/A   Clear
8:15 AM 16.7 °F 0.1 °F 5.7 °F 62% 30.25 in 10.0 mi NW 19.6 mph 32.2 mph N/A   Clear
8:35 AM 16.7 °F -0.7 °F 5.5 °F 62% 30.26 in 10.0 mi NW 21.9 mph 33.4 mph N/A   Clear
8:55 AM 17.2 °F -0.0 °F 5.2 °F 59% 30.27 in 10.0 mi NW 21.9 mph 33.4 mph N/A   Clear
9:15 AM 17.6 °F 1.7 °F 5.0 °F 58% 30.29 in 10.0 mi NW 18.4 mph 28.8 mph N/A   Clear
9:35 AM 18.0 °F 2.6 °F 4.1 °F 55% 30.30 in 10.0 mi NW 17.3 mph 28.8 mph N/A   Clear
9:55 AM 18.3 °F 3.1 °F 2.3 °F 50% 30.30 in 10.0 mi NW 17.3 mph 27.6 mph N/A   Clear
10:15 AM 19.0 °F 2.4 °F 2.7 °F 49% 30.31 in 10.0 mi NW 21.9 mph 27.6 mph N/A   Clear
10:35 AM 19.4 °F 6.0 °F 1.9 °F 47% 30.32 in 10.0 mi NW 13.8 mph 24.2 mph N/A   Clear
10:55 AM 20.3 °F 5.7 °F 0.3 °F 42% 30.33 in 10.0 mi NNW 17.3 mph 31.1 mph N/A   Clear
11:15 AM 21.6 °F 13.0 °F 0.3 °F 40% 30.33 in 10.0 mi North 6.9 mph 18.4 mph N/A   Clear
11:35 AM 22.1 °F 10.6 °F -1.7 °F 35% 30.32 in 10.0 mi NW 11.5 mph 17.3 mph N/A   Clear
11:55 AM 22.3 °F 10.8 °F -3.8 °F 32% 30.32 in 10.0 mi NW 11.5 mph 19.6 mph N/A   Clear
12:15 PM 23.0 °F 14.7 °F -4.5 °F 30% 30.31 in 10.0 mi NNW 6.9 mph 21.9 mph N/A   Clear
12:35 PM 24.1 °F 13.7 °F -4.2 °F 29% 30.30 in 10.0 mi NNW 10.4 mph 24.2 mph N/A   Clear
12:55 PM 23.5 °F 10.8 °F -3.8 °F 30% 30.30 in 10.0 mi NNW 15.0 mph 25.3 mph N/A   Clear
1:15 PM 24.6 °F 11.7 °F -3.5 °F 29% 30.30 in 10.0 mi NW 16.1 mph 21.9 mph N/A   Clear
1:35 PM 24.1 °F 13.1 °F -4.7 °F 28% 30.30 in 10.0 mi NW 11.5 mph 24.2 mph N/A   Clear
1:55 PM 24.8 °F 13.4 °F -4.7 °F 28% 30.29 in 10.0 mi NW 12.7 mph 18.4 mph N/A   Clear
2:15 PM 24.6 °F 14.4 °F -6.9 °F 25% 30.28 in 10.0 mi NW 10.4 mph 24.2 mph N/A   Clear
2:35 PM 25.0 °F 13.1 °F -6.2 °F 26% 30.29 in 10.0 mi NW 13.8 mph 20.7 mph N/A   Clear
2:55 PM 25.7 °F 15.1 °F -5.6 °F 25% 30.30 in 10.0 mi NW 11.5 mph 18.4 mph N/A   Clear
3:15 PM 25.3 °F 14.7 °F -6.0 °F 25% 30.30 in 10.0 mi NW 11.5 mph 21.9 mph N/A   Clear
3:35 PM 25.7 °F 16.4 °F -5.4 °F 26% 30.29 in 10.0 mi NW 9.2 mph 17.3 mph N/A   Clear
3:55 PM 25.5 °F 19.9 °F -5.3 °F 26% 30.30 in 10.0 mi NW 4.6 mph - N/A   Clear
4:15 PM 25.2 °F 15.1 °F -4.4 °F 28% 30.31 in 10.0 mi NW 10.4 mph - N/A   Clear
4:35 PM 23.9 °F 14.2 °F -5.1 °F 28% 30.31 in 10.0 mi NW 9.2 mph - N/A   Clear
4:55 PM 23.4 °F 18.9 °F -5.8 °F 28% 30.31 in 10.0 mi NW 3.5 mph - N/A   Clear
5:15 PM 22.8 °F 13.6 °F -6.2 °F 28% 30.31 in 10.0 mi NW 8.1 mph - N/A   Clear
5:35 PM 22.6 °F 12.6 °F -6.9 °F 27% 30.31 in 10.0 mi NW 9.2 mph 17.3 mph N/A   Clear
5:55 PM 21.9 °F 13.4 °F -6.0 °F 29% 30.32 in 10.0 mi NW 6.9 mph - N/A   Clear
6:15 PM 21.4 °F 11.1 °F -5.1 °F 31% 30.32 in 10.0 mi WNW 9.2 mph - N/A   Clear
6:35 PM 21.2 °F 11.7 °F -4.9 °F 32% 30.33 in 10.0 mi WNW 8.1 mph - N/A   Clear
6:55 PM 21.0 °F 13.4 °F -4.7 °F 32% 30.33 in 10.0 mi West 5.8 mph - N/A   Clear
7:15 PM 20.5 °F 14.0 °F -4.7 °F 33% 30.34 in 10.0 mi NW 4.6 mph - N/A   Clear
7:35 PM 20.7 °F 15.8 °F -4.9 °F 32% 30.34 in 10.0 mi WNW 3.5 mph - N/A   Clear
7:55 PM 19.9 °F - -3.8 °F 35% 30.34 in 10.0 mi Calm Calm - N/A   Clear
8:15 PM 19.9 °F - -2.9 °F 37% 30.34 in 10.0 mi Calm Calm - N/A   Clear
8:35 PM 19.4 °F 14.3 °F -3.3 °F 37% 30.35 in 10.0 mi NW 3.5 mph - N/A   Clear
8:55 PM 19.0 °F 12.3 °F -3.1 °F 38% 30.36 in 10.0 mi NW 4.6 mph - N/A   Clear
9:15 PM 19.8 °F 9.9 °F -2.9 °F 37% 30.36 in 10.0 mi WNW 8.1 mph - N/A   Clear
9:35 PM 19.8 °F 9.1 °F -2.4 °F 38% 30.36 in 10.0 mi West 9.2 mph - N/A   Clear
9:55 PM 19.4 °F 12.8 °F -2.9 °F 37% 30.36 in 10.0 mi WNW 4.6 mph - N/A   Clear
10:15 PM 19.2 °F 14.1 °F -2.6 °F 38% 30.37 in 10.0 mi WSW 3.5 mph - N/A   Clear
10:35 PM 19.4 °F 12.8 °F -2.2 °F 39% 30.37 in 10.0 mi WNW 4.6 mph - N/A   Clear
10:55 PM 18.0 °F 12.7 °F -1.3 °F 43% 30.37 in 10.0 mi NNW 3.5 mph - N/A   Clear
11:15 PM 18.3 °F - -2.0 °F 41% 30.36 in 10.0 mi Calm Calm - N/A   Clear
11:35 PM 16.5 °F - 1.4 °F 52% 30.37 in 10.0 mi Calm Calm - N/A   Clear
11:55 PM 16.9 °F - 0.3 °F 48% 30.36 in 10.0 mi Calm Calm - N/A   Clear